This demonstration page uses our WeatherBlox Daily Observations layout. Learn more.

Left ArrowRight Arrow

Hourly Observations for August 16, 2015

Temp ( °F °C ) Dew Point ( °F °C ) Humidity (%) Winds ( mph kmh ) Pressure ( in mb ) Visibility ( mi km ) Precip ( " mm )
12:15 am 00:15 Clear 73 23 61 16 65 65 S 14 22 29.94 1014 10 16 0.00 0.00
12:35 am 00:35 Clear 72 22 59 15 65 65 S 15 24 29.91 1013 10 16 0.00 0.00
12:55 am 00:55 Clear 72 22 59 15 65 65 S 15 24 29.91 1013 10 16 0.00 0.00
1:15 am 01:15 Clear 72 22 57 14 61 61 S 13 20 29.94 1014 10 16 0.00 0.00
1:35 am 01:35 Clear 72 22 57 14 61 61 S 13 20 29.94 1014 10 16 0.00 0.00
1:55 am 01:55 Clear 72 22 59 15 65 65 S 15 24 29.94 1014 10 16 0.00 0.00
2:15 am 02:15 Clear 72 22 59 15 65 65 S 13 20 29.94 1014 10 16 0.00 0.00
2:35 am 02:35 Clear 72 22 59 15 65 65 S 12 19 29.94 1014 10 16 0.00 0.00
2:55 am 02:55 Clear 72 22 59 15 65 65 S 13 20 29.94 1014 10 16 0.00 0.00
3:15 am 03:15 Clear 72 22 59 15 65 65 S 14 22 29.91 1013 10 16 0.00 0.00
3:35 am 03:35 Partly Cloudy 70 21 59 15 69 69 S 12 19 29.91 1013 10 16 0.00 0.00
3:55 am 03:55 Partly Cloudy 70 21 59 15 69 69 S 10 17 29.91 1013 10 16 0.00 0.00
4:15 am 04:15 Mostly Cloudy 70 21 59 15 69 69 S 9 15 29.91 1013 10 16 0.00 0.00
4:35 am 04:35 Mostly Clear 70 21 59 15 69 69 S 10 17 29.91 1013 10 16 0.00 0.00
4:55 am 04:55 Clear 70 21 57 14 64 64 SSW 14 22 29.91 1013 10 16 0.00 0.00
5:15 am 05:15 Clear 70 21 57 14 64 64 SSW 16 26 29.91 1013 10 16 0.00 0.00
5:35 am 05:35 Clear 70 21 57 14 64 64 SSW 15 24 29.88 1012 10 16 0.00 0.00
5:55 am 05:55 Clear 70 21 57 14 64 64 SSW 13 20 29.91 1013 10 16 0.00 0.00
6:15 am 06:15 Clear 70 21 57 14 64 64 SSW 14 22 29.91 1013 10 16 0.00 0.00
6:35 am 06:35 Clear with Nearby Thunderstorms 70 21 57 14 64 64 SSW 16 26 29.91 1013 10 16 0.00 0.00
6:55 am 06:55 Partly Cloudy with Nearby Thunderstorms 70 21 57 14 64 64 SSW 14 22 29.91 1013 10 16 0.00 0.00
7:15 am 07:15 Sunny with Nearby Thunderstorms 70 21 59 15 69 69 SSW 15 24 29.94 1014 10 16 0.00 0.00
7:35 am 07:35 Sunny with Nearby Thunderstorms 70 21 61 16 73 73 SSW 20 31 29.91 1013 8 13 0.00 0.00
7:55 am 07:55 Mostly Cloudy 68 20 61 16 78 78 S 14 22 29.91 1013 10 16 0.00 0.00
8:15 am 08:15 Mostly Cloudy 68 20 61 16 78 78 S 15 24 29.91 1013 10 16 0.00 0.00
8:35 am 08:35 Mostly Sunny 68 20 61 16 78 78 S 16 26 29.91 1013 10 16 0.00 0.00
8:55 am 08:55 Mostly Cloudy 66 19 61 16 83 83 S 14 22 29.94 1014 10 16 0.00 0.00
9:15 am 09:15 Cloudy with Thunderstorms 68 20 63 17 83 83 S 15 24 29.91 1013 10 16 0.00 0.00
9:35 am 09:35 Cloudy 70 21 63 17 78 78 S 15 24 29.88 1012 10 16 0.01 0.25
9:55 am 09:55 Cloudy 70 21 64 18 83 83 W 7 11 29.91 1013 10 16 0.02 0.51
10:15 am 10:15 Cloudy 70 21 64 18 83 83 SSW 12 19 29.88 1012 10 16 0.00 0.00
10:35 am 10:35 Cloudy 70 21 63 17 78 78 Calm 29.91 1013 10 16 0.03 0.76
10:55 am 10:55 Cloudy 70 21 64 18 83 83 S 3 6 29.91 1013 10 16 0.03 0.76
11:15 am 11:15 Partly Cloudy 70 21 64 18 83 83 E 3 6 29.91 1013 8 13 0.00 0.00
11:35 am 11:35 Sunny 70 21 64 18 83 83 E 8 13 29.91 1013 9 14 0.01 0.25
11:55 am 11:55 Sunny 72 22 64 18 78 78 NNE 3 6 29.91 1013 10 16 0.01 0.25
12:15 pm 12:15 Sunny 72 22 64 18 78 78 SSE 5 7 29.91 1013 10 16 0.00 0.00
12:35 pm 12:35 Sunny 73 23 64 18 74 74 Calm 29.91 1013 10 16 0.00 0.00
12:55 pm 12:55 Sunny 73 23 66 19 78 78 NE 3 6 29.91 1013 10 16 0.00 0.00
1:15 pm 13:15 Sunny 73 23 66 19 78 78 NNE 5 7 29.91 1013 10 16 0.00 0.00
1:35 pm 13:35 Sunny 75 24 66 19 74 74 ENE 5 7 29.88 1012 10 16 0.00 0.00
1:55 pm 13:55 Sunny 75 24 66 19 74 74 E 5 7 29.88 1012 10 16 0.00 0.00
2:15 pm 14:15 Sunny 79 26 68 20 70 70 ENE 5 7 29.88 1012 10 16 0.00 0.00
2:35 pm 14:35 Mostly Sunny 81 27 70 21 70 70 NE 5 7 29.88 1012 10 16 0.00 0.00
2:55 pm 14:55 Partly Cloudy 79 26 70 21 74 74 NNE 5 7 29.88 1012 10 16 0.00 0.00
3:15 pm 15:15 Partly Cloudy 81 27 70 21 70 70 N 9 15 29.88 1012 10 16 0.00 0.00
3:35 pm 15:35 Cloudy 79 26 70 21 74 74 N 6 9 29.88 1012 10 16 0.00 0.00
3:55 pm 15:55 Cloudy 79 26 70 21 74 74 N 7 11 29.85 1011 10 16 0.00 0.00
4:15 pm 16:15 Cloudy with Nearby Thunderstorms 79 26 70 21 74 74 N 9 15 29.85 1011 10 16 0.00 0.00
4:35 pm 16:35 Cloudy with Nearby Thunderstorms 79 26 70 21 74 74 NE 3 6 29.88 1012 10 16 0.00 0.00
4:55 pm 16:55 Cloudy with Nearby Thunderstorms 79 26 72 22 79 79 W 9 15 29.88 1012 10 16 0.00 0.00
5:15 pm 17:15 Cloudy with Nearby Thunderstorms 75 24 70 21 83 83 WNW 8 13 29.91 1013 10 16 0.00 0.00
5:35 pm 17:35 Cloudy with Thunderstorms 73 23 68 20 83 83 NW 12 19 29.94 1014 7 11 0.01 0.25
5:55 pm 17:55 Mostly Cloudy with Thunderstorms 72 22 66 19 83 83 Calm 29.94 1014 10 16 0.03 0.76
6:15 pm 18:15 Cloudy with Nearby Thunderstorms 70 21 66 19 88 88 NNE 9 15 29.94 1014 10 16 0.00 0.00
6:35 pm 18:35 Cloudy with Nearby Thunderstorms 70 21 66 19 88 88 NE 10 17 29.94 1014 10 16 0.09 2.29
6:55 pm 18:55 Cloudy 70 21 66 19 88 88 NE 6 9 29.94 1014 9 14 0.12 3.05
7:15 pm 19:15 Cloudy 70 21 66 19 88 88 E 3 6 29.91 1013 5 8 0.00 0.00
7:35 pm 19:35 Cloudy 70 21 66 19 88 88 SE 3 6 29.91 1013 5 8 0.07 1.78
7:55 pm 19:55 Cloudy 70 21 66 19 88 88 SSE 3 6 29.91 1013 5 8 0.10 2.54
8:15 pm 20:15 Cloudy 70 21 66 19 88 88 Calm 29.88 1012 9 14 0.00 0.00
8:35 pm 20:35 Cloudy 70 21 66 19 88 88 S 6 9 29.88 1012 7 11 0.01 0.25
8:55 pm 20:55 Mostly Cloudy 70 21 66 19 88 88 ENE 3 6 29.88 1012 8 13 0.02 0.51
9:15 pm 21:15 Partly Cloudy 70 21 66 19 88 88 ESE 3 6 29.88 1012 5 8 0.00 0.00
9:35 pm 21:35 Clear 70 21 66 19 88 88 NE 5 7 29.91 1013 5 8 0.00 0.00
9:55 pm 21:55 Clear 70 21 66 19 88 88 NNE 9 15 29.94 1014 5 8 0.00 0.00
10:15 pm 22:15 Clear 70 21 66 19 88 88 N 10 17 29.94 1014 3 5 0.00 0.00
10:35 pm 22:35 Clear 70 21 66 19 88 88 N 10 17 29.94 1014 8 13 0.00 0.00
10:55 pm 22:55 Clear 70 21 64 18 83 83 N 9 15 29.94 1014 9 14 0.00 0.00
11:15 pm 23:15 Clear 68 20 64 18 88 88 N 7 11 29.94 1014 10 16 0.00 0.00
11:35 pm 23:35 Clear 68 20 64 18 88 88 N 10 17 29.97 1015 10 16 0.00 0.00
11:55 pm 23:55 Mostly Cloudy 68 20 64 18 88 88 NNE 9 15 29.97 1015 3 5 0.00 0.00

Powered by AerisWeather